Precipitable_Water
0.53 0.52 0.53 0.52 0.51 0.51 0.50 0.47 0.46 0.46 0.46 0.45 0.45 0.46 0.46 0.46 0.46 0.47 0.48 0.48 0.50 0.50 0.51 0.51 0.51 0.51 0.51 0.51 0.50 0.49 0.48 0.48 0.47 0.47 0.46 0.44 0.42 0.41 0.40 0.39 0.38 0.38 0.38 0.37 0.38 0.37 0.37 0.37 0.37 0.37 0.38 0.37 0.37 0.37 0.36 0.36 0.36 0.37 0.37 0.37 0.36 0.37 0.37 0.36 0.34 0.33 0.36 0.36 0.34 0.33 0.33 0.32 0.31 0.32 0.31 0.31 0.31 0.31 0.31 0.32 0.32 0.31 0.30 0.28 0.27
0.54 0.54 0.54 0.54 0.54 0.53 0.53 0.52 0.50 0.48 0.48 0.46 0.45 0.45 0.47 0.47 0.47 0.48 0.48 0.49 0.50 0.50 0.51 0.52 0.52 0.52 0.52 0.51 0.51 0.50 0.50 0.49 0.48 0.48 0.46 0.45 0.43 0.42 0.41 0.40 0.39 0.38 0.38 0.38 0.38 0.39 0.38 0.38 0.39 0.39 0.39 0.38 0.38 0.37 0.37 0.36 0.36 0.36 0.37 0.37 0.36 0.36 0.37 0.35 0.34 0.33 0.32 0.33 0.31 0.31 0.30 0.31 0.28 0.30 0.29 0.29 0.30 0.30 0.29 0.29 0.29 0.29 0.27 0.26 0.24
0.54 0.55 0.54 0.53 0.53 0.54 0.54 0.54 0.53 0.51 0.49 0.49 0.48 0.48 0.47 0.48 0.49 0.49 0.49 0.50 0.51 0.51 0.51 0.51 0.52 0.52 0.51 0.51 0.51 0.50 0.49 0.49 0.48 0.48 0.47 0.46 0.44 0.43 0.42 0.41 0.39 0.39 0.38 0.38 0.39 0.39 0.39 0.39 0.40 0.41 0.41 0.39 0.39 0.38 0.38 0.37 0.37 0.36 0.36 0.37 0.35 0.35 0.35 0.35 0.34 0.33 0.31 0.30 0.31 0.29 0.28 0.28 0.27 0.27 0.28 0.29 0.29 0.29 0.28 0.28 0.27 0.27 0.26 0.24 0.23
0.52 0.53 0.53 0.54 0.54 0.53 0.53 0.53 0.53 0.53 0.52 0.50 0.49 0.50 0.51 0.51 0.50 0.49 0.50 0.51 0.51 0.52 0.52 0.52 0.51 0.51 0.51 0.51 0.50 0.50 0.49 0.49 0.48 0.48 0.47 0.46 0.45 0.44 0.43 0.42 0.41 0.40 0.39 0.39 0.39 0.40 0.40 0.40 0.41 0.42 0.42 0.40 0.39 0.39 0.39 0.38 0.37 0.37 0.36 0.37 0.36 0.35 0.36 0.36 0.35 0.33 0.33 0.31 0.31 0.28 0.27 0.26 0.26 0.27 0.28 0.28 0.28 0.27 0.26 0.25 0.25 0.25 0.24 0.24 0.22
0.50 0.51 0.52 0.52 0.53 0.53 0.53 0.53 0.52 0.51 0.52 0.51 0.52 0.52 0.51 0.51 0.52 0.51 0.50 0.50 0.50 0.51 0.52 0.52 0.52 0.51 0.50 0.50 0.50 0.50 0.50 0.50 0.49 0.48 0.47 0.46 0.46 0.45 0.44 0.43 0.41 0.40 0.40 0.40 0.40 0.40 0.40 0.40 0.41 0.42 0.43 0.41 0.40 0.39 0.39 0.38 0.38 0.37 0.36 0.37 0.36 0.36 0.36 0.36 0.36 0.35 0.33 0.32 0.30 0.29 0.27 0.26 0.25 0.25 0.26 0.26 0.26 0.25 0.25 0.24 0.24 0.24 0.23 0.23 0.22
0.50 0.49 0.49 0.49 0.50 0.51 0.52 0.52 0.52 0.52 0.52 0.52 0.51 0.51 0.52 0.52 0.52 0.52 0.53 0.51 0.51 0.51 0.52 0.52 0.52 0.51 0.51 0.51 0.51 0.50 0.51 0.50 0.50 0.49 0.48 0.47 0.46 0.45 0.44 0.43 0.42 0.42 0.41 0.41 0.40 0.40 0.40 0.41 0.42 0.42 0.42 0.41 0.40 0.40 0.39 0.38 0.38 0.37 0.36 0.36 0.36 0.36 0.35 0.36 0.36 0.35 0.34 0.33 0.31 0.30 0.28 0.25 0.24 0.24 0.25 0.26 0.25 0.24 0.24 0.24 0.23 0.24 0.23 0.22 0.21
0.48 0.48 0.48 0.48 0.47 0.48 0.49 0.51 0.52 0.52 0.52 0.53 0.53 0.53 0.53 0.53 0.53 0.53 0.53 0.53 0.53 0.52 0.52 0.52 0.54 0.54 0.53 0.53 0.53 0.53 0.52 0.52 0.50 0.49 0.48 0.47 0.46 0.45 0.44 0.44 0.43 0.43 0.42 0.42 0.41 0.40 0.40 0.40 0.41 0.42 0.42 0.41 0.40 0.40 0.39 0.38 0.37 0.36 0.36 0.35 0.36 0.36 0.35 0.35 0.35 0.34 0.34 0.33 0.32 0.31 0.28 0.27 0.25 0.24 0.25 0.26 0.25 0.24 0.23 0.22 0.22 0.23 0.23 0.22 0.19
0.43 0.44 0.46 0.47 0.47 0.47 0.48 0.49 0.51 0.52 0.53 0.53 0.54 0.54 0.54 0.54 0.56 0.56 0.56 0.55 0.54 0.54 0.54 0.53 0.54 0.54 0.54 0.54 0.54 0.54 0.53 0.53 0.52 0.51 0.50 0.49 0.47 0.46 0.45 0.45 0.44 0.44 0.43 0.43 0.42 0.41 0.40 0.41 0.41 0.42 0.42 0.41 0.40 0.40 0.39 0.38 0.38 0.36 0.37 0.36 0.36 0.35 0.34 0.34 0.34 0.33 0.33 0.32 0.31 0.30 0.29 0.27 0.26 0.25 0.25 0.25 0.24 0.23 0.24 0.23 0.21 0.21 0.21 0.21 0.20
0.40 0.40 0.40 0.43 0.46 0.48 0.48 0.48 0.48 0.49 0.52 0.53 0.53 0.54 0.55 0.55 0.55 0.56 0.58 0.58 0.58 0.58 0.58 0.57 0.56 0.55 0.55 0.53 0.53 0.54 0.55 0.54 0.54 0.54 0.51 0.49 0.49 0.47 0.46 0.45 0.45 0.45 0.44 0.44 0.43 0.42 0.41 0.40 0.41 0.42 0.41 0.41 0.40 0.40 0.39 0.38 0.37 0.36 0.37 0.37 0.35 0.35 0.34 0.34 0.33 0.33 0.32 0.31 0.30 0.30 0.28 0.27 0.26 0.24 0.23 0.22 0.22 0.22 0.24 0.24 0.23 0.22 0.21 0.20 0.19
0.39 0.38 0.38 0.38 0.42 0.46 0.47 0.48 0.48 0.48 0.48 0.51 0.52 0.53 0.54 0.54 0.55 0.55 0.56 0.58 0.59 0.59 0.58 0.58 0.58 0.57 0.57 0.56 0.55 0.54 0.55 0.56 0.57 0.56 0.55 0.52 0.50 0.49 0.47 0.46 0.45 0.44 0.44 0.44 0.43 0.42 0.41 0.41 0.41 0.41 0.41 0.41 0.40 0.40 0.39 0.39 0.38 0.37 0.36 0.36 0.36 0.35 0.34 0.34 0.33 0.32 0.31 0.30 0.29 0.29 0.27 0.26 0.25 0.23 0.23 0.23 0.24 0.25 0.24 0.24 0.22 0.21 0.21 0.19 0.19
0.36 0.36 0.36 0.37 0.39 0.41 0.43 0.45 0.46 0.47 0.48 0.49 0.51 0.53 0.53 0.54 0.54 0.54 0.55 0.56 0.57 0.58 0.58 0.58 0.57 0.57 0.57 0.57 0.56 0.55 0.55 0.56 0.56 0.57 0.56 0.55 0.52 0.49 0.48 0.47 0.46 0.45 0.44 0.44 0.43 0.42 0.42 0.42 0.41 0.42 0.41 0.41 0.40 0.39 0.39 0.39 0.39 0.38 0.37 0.37 0.37 0.36 0.35 0.34 0.33 0.32 0.31 0.30 0.30 0.29 0.27 0.25 0.24 0.24 0.24 0.25 0.25 0.25 0.25 0.24 0.22 0.21 0.19 0.17 0.15
0.30 0.31 0.33 0.36 0.38 0.38 0.38 0.39 0.42 0.43 0.45 0.46 0.48 0.51 0.53 0.53 0.53 0.54 0.55 0.55 0.56 0.57 0.57 0.57 0.57 0.57 0.57 0.57 0.57 0.56 0.56 0.56 0.56 0.56 0.56 0.55 0.52 0.49 0.48 0.47 0.47 0.45 0.45 0.44 0.43 0.42 0.42 0.42 0.42 0.42 0.41 0.41 0.41 0.40 0.39 0.39 0.39 0.38 0.38 0.39 0.40 0.40 0.37 0.34 0.32 0.32 0.32 0.31 0.29 0.28 0.27 0.25 0.24 0.25 0.25 0.25 0.25 0.26 0.25 0.24 0.22 0.20 0.19 0.17 0.16
0.24 0.24 0.27 0.30 0.33 0.34 0.35 0.35 0.35 0.37 0.40 0.43 0.45 0.46 0.48 0.49 0.50 0.50 0.51 0.53 0.54 0.55 0.55 0.56 0.56 0.56 0.55 0.55 0.55 0.56 0.56 0.56 0.56 0.56 0.56 0.55 0.53 0.50 0.48 0.47 0.47 0.47 0.46 0.45 0.43 0.42 0.42 0.41 0.41 0.41 0.42 0.41 0.40 0.39 0.39 0.39 0.39 0.38 0.38 0.40 0.42 0.41 0.39 0.36 0.34 0.33 0.32 0.31 0.29 0.27 0.26 0.25 0.25 0.26 0.26 0.25 0.27 0.25 0.24 0.23 0.21 0.20 0.19 0.18 0.17
0.20 0.22 0.23 0.25 0.27 0.29 0.31 0.32 0.32 0.33 0.35 0.38 0.41 0.43 0.44 0.44 0.46 0.47 0.48 0.49 0.50 0.51 0.53 0.54 0.55 0.54 0.54 0.53 0.53 0.54 0.54 0.56 0.56 0.56 0.56 0.55 0.54 0.52 0.50 0.48 0.48 0.48 0.47 0.45 0.44 0.43 0.42 0.42 0.41 0.41 0.41 0.41 0.40 0.39 0.39 0.38 0.38 0.38 0.40 0.42 0.43 0.41 0.39 0.37 0.36 0.35 0.35 0.32 0.29 0.26 0.27 0.27 0.26 0.26 0.27 0.28 0.27 0.25 0.24 0.21 0.21 0.20 0.19 0.18 0.18
0.16 0.18 0.19 0.22 0.23 0.25 0.26 0.27 0.28 0.30 0.32 0.33 0.35 0.37 0.39 0.42 0.43 0.45 0.46 0.46 0.47 0.48 0.49 0.50 0.52 0.54 0.54 0.53 0.52 0.52 0.53 0.54 0.54 0.55 0.56 0.56 0.56 0.54 0.52 0.50 0.49 0.48 0.47 0.47 0.46 0.44 0.43 0.42 0.41 0.40 0.40 0.40 0.40 0.39 0.38 0.37 0.38 0.40 0.42 0.43 0.42 0.40 0.40 0.38 0.38 0.37 0.35 0.33 0.30 0.28 0.28 0.30 0.29 0.28 0.28 0.29 0.28 0.27 0.26 0.24 0.22 0.21 0.20 0.19 0.18
0.15 0.16 0.17 0.18 0.19 0.20 0.21 0.22 0.23 0.26 0.28 0.30 0.31 0.31 0.34 0.38 0.41 0.44 0.45 0.46 0.47 0.48 0.49 0.49 0.49 0.51 0.52 0.52 0.52 0.51 0.52 0.53 0.53 0.54 0.55 0.56 0.56 0.55 0.54 0.52 0.50 0.49 0.48 0.48 0.47 0.46 0.44 0.43 0.41 0.40 0.40 0.39 0.39 0.38 0.37 0.37 0.38 0.40 0.41 0.42 0.41 0.41 0.41 0.41 0.39 0.38 0.36 0.35 0.32 0.31 0.30 0.30 0.29 0.29 0.30 0.30 0.30 0.29 0.27 0.25 0.24 0.22 0.19 0.17 0.16
0.14 0.14 0.15 0.15 0.16 0.17 0.17 0.18 0.20 0.22 0.25 0.27 0.27 0.28 0.30 0.33 0.37 0.41 0.43 0.45 0.46 0.46 0.46 0.48 0.49 0.49 0.50 0.50 0.50 0.50 0.51 0.52 0.53 0.54 0.54 0.55 0.55 0.54 0.53 0.52 0.50 0.50 0.49 0.49 0.47 0.45 0.44 0.44 0.43 0.42 0.41 0.39 0.39 0.38 0.38 0.38 0.39 0.40 0.41 0.41 0.41 0.41 0.41 0.41 0.40 0.39 0.38 0.36 0.34 0.32 0.31 0.30 0.31 0.32 0.32 0.33 0.31 0.29 0.27 0.24 0.21 0.20 0.18 0.17 0.17
0.12 0.13 0.13 0.14 0.14 0.14 0.15 0.15 0.16 0.19 0.22 0.23 0.24 0.26 0.27 0.29 0.31 0.35 0.39 0.42 0.44 0.45 0.45 0.46 0.47 0.48 0.48 0.48 0.50 0.49 0.50 0.52 0.53 0.54 0.55 0.55 0.55 0.53 0.52 0.51 0.49 0.49 0.48 0.48 0.47 0.46 0.46 0.45 0.44 0.43 0.41 0.40 0.40 0.40 0.41 0.41 0.41 0.41 0.41 0.41 0.42 0.42 0.40 0.39 0.39 0.39 0.39 0.37 0.35 0.33 0.32 0.32 0.34 0.36 0.35 0.32 0.31 0.29 0.26 0.21 0.21 0.20 0.18 0.18 0.18
0.11 0.11 0.12 0.13 0.13 0.13 0.13 0.14 0.15 0.17 0.19 0.20 0.21 0.23 0.24 0.26 0.27 0.30 0.33 0.38 0.41 0.44 0.46 0.45 0.45 0.47 0.48 0.49 0.49 0.49 0.50 0.51 0.52 0.54 0.55 0.56 0.55 0.53 0.52 0.50 0.48 0.47 0.47 0.47 0.47 0.47 0.47 0.47 0.46 0.45 0.44 0.43 0.44 0.44 0.45 0.44 0.43 0.42 0.42 0.43 0.43 0.39 0.37 0.37 0.36 0.36 0.36 0.35 0.33 0.33 0.34 0.36 0.36 0.35 0.33 0.32 0.30 0.28 0.26 0.23 0.22 0.20 0.19 0.19 0.19
0.11 0.11 0.11 0.11 0.11 0.11 0.12 0.12 0.14 0.16 0.16 0.18 0.19 0.20 0.22 0.24 0.24 0.25 0.27 0.31 0.35 0.39 0.43 0.45 0.45 0.45 0.47 0.48 0.49 0.49 0.50 0.50 0.51 0.52 0.54 0.55 0.55 0.53 0.52 0.50 0.48 0.48 0.48 0.47 0.47 0.48 0.48 0.48 0.48 0.47 0.46 0.45 0.46 0.47 0.48 0.47 0.44 0.43 0.45 0.45 0.40 0.37 0.37 0.36 0.36 0.36 0.35 0.35 0.33 0.34 0.34 0.33 0.33 0.32 0.30 0.29 0.27 0.26 0.24 0.23 0.23 0.22 0.20 0.19 0.19
0.11 0.11 0.11 0.10 0.10 0.11 0.11 0.11 0.12 0.14 0.15 0.15 0.16 0.17 0.18 0.20 0.22 0.23 0.24 0.26 0.30 0.34 0.38 0.42 0.44 0.45 0.46 0.47 0.48 0.49 0.49 0.50 0.51 0.51 0.52 0.54 0.55 0.54 0.53 0.51 0.51 0.50 0.48 0.48 0.47 0.46 0.46 0.47 0.48 0.48 0.46 0.46 0.48 0.50 0.50 0.48 0.46 0.47 0.47 0.42 0.37 0.35 0.35 0.35 0.35 0.35 0.34 0.34 0.33 0.33 0.32 0.32 0.31 0.29 0.28 0.27 0.26 0.25 0.25 0.25 0.24 0.23 0.21 0.19 0.18
0.11 0.11 0.11 0.10 0.10 0.10 0.10 0.11 0.12 0.13 0.14 0.14 0.14 0.14 0.15 0.17 0.19 0.21 0.23 0.23 0.25 0.28 0.32 0.37 0.41 0.44 0.46 0.46 0.47 0.48 0.49 0.49 0.50 0.50 0.51 0.52 0.54 0.54 0.53 0.52 0.50 0.49 0.48 0.47 0.46 0.45 0.45 0.45 0.44 0.45 0.47 0.48 0.48 0.50 0.51 0.50 0.50 0.48 0.43 0.39 0.37 0.36 0.36 0.36 0.36 0.35 0.33 0.32 0.31 0.30 0.30 0.30 0.29 0.27 0.27 0.26 0.25 0.25 0.24 0.24 0.23 0.22 0.21 0.21 0.19
0.11 0.11 0.11 0.10 0.10 0.10 0.10 0.11 0.12 0.12 0.12 0.12 0.12 0.12 0.13 0.14 0.16 0.17 0.19 0.20 0.21 0.23 0.27 0.32 0.36 0.40 0.44 0.45 0.46 0.46 0.48 0.49 0.49 0.48 0.49 0.51 0.53 0.54 0.55 0.52 0.52 0.50 0.48 0.46 0.45 0.44 0.44 0.44 0.44 0.45 0.47 0.49 0.49 0.51 0.52 0.53 0.51 0.45 0.41 0.39 0.38 0.38 0.37 0.36 0.35 0.35 0.33 0.32 0.30 0.29 0.29 0.28 0.27 0.26 0.25 0.25 0.24 0.24 0.24 0.23 0.22 0.21 0.21 0.20 0.20
0.11 0.10 0.10 0.10 0.10 0.10 0.10 0.10 0.11 0.11 0.11 0.11 0.11 0.11 0.11 0.12 0.13 0.14 0.16 0.17 0.19 0.20 0.23 0.27 0.31 0.35 0.40 0.44 0.45 0.46 0.47 0.48 0.49 0.48 0.49 0.49 0.51 0.52 0.53 0.52 0.51 0.49 0.47 0.45 0.45 0.45 0.44 0.44 0.45 0.47 0.49 0.50 0.50 0.52 0.53 0.53 0.49 0.44 0.41 0.40 0.39 0.38 0.37 0.35 0.33 0.32 0.30 0.28 0.27 0.28 0.28 0.28 0.26 0.25 0.24 0.24 0.24 0.24 0.23 0.22 0.21 0.21 0.20 0.20 0.19
0.10 0.10 0.10 0.09 0.09 0.09 0.09 0.09 0.09 0.09 0.10 0.10 0.10 0.10 0.11 0.11 0.12 0.12 0.14 0.14 0.16 0.17 0.20 0.23 0.26 0.31 0.35 0.40 0.43 0.44 0.45 0.46 0.47 0.48 0.48 0.48 0.49 0.50 0.51 0.51 0.51 0.49 0.47 0.46 0.46 0.46 0.47 0.47 0.48 0.48 0.50 0.51 0.51 0.51 0.51 0.51 0.47 0.43 0.39 0.39 0.39 0.39 0.37 0.34 0.31 0.29 0.28 0.27 0.27 0.27 0.27 0.26 0.25 0.24 0.24 0.24 0.24 0.23 0.22 0.21 0.21 0.20 0.20 0.19 0.19
0.09 0.09 0.08 0.08 0.08 0.08 0.08 0.08 0.07 0.07 0.08 0.09 0.09 0.09 0.10 0.10 0.11 0.12 0.12 0.13 0.14 0.15 0.17 0.20 0.22 0.26 0.31 0.36 0.41 0.43 0.45 0.45 0.45 0.46 0.47 0.47 0.48 0.49 0.51 0.51 0.50 0.50 0.49 0.48 0.48 0.48 0.48 0.48 0.48 0.49 0.50 0.51 0.50 0.49 0.48 0.49 0.47 0.43 0.40 0.41 0.40 0.39 0.36 0.31 0.28 0.28 0.27 0.26 0.27 0.26 0.26 0.26 0.25 0.24 0.24 0.24 0.23 0.22 0.21 0.20 0.19 0.19 0.19 0.18 0.17
0.08 0.08 0.07 0.07 0.07 0.08 0.07 0.07 0.07 0.07 0.07 0.08 0.09 0.09 0.10 0.10 0.11 0.11 0.12 0.12 0.12 0.14 0.15 0.17 0.20 0.23 0.27 0.32 0.37 0.41 0.43 0.44 0.45 0.45 0.46 0.46 0.46 0.47 0.50 0.50 0.50 0.50 0.49 0.48 0.47 0.48 0.49 0.49 0.48 0.49 0.50 0.50 0.48 0.47 0.46 0.46 0.46 0.44 0.42 0.42 0.41 0.38 0.33 0.30 0.28 0.27 0.27 0.26 0.26 0.27 0.27 0.26 0.25 0.25 0.24 0.23 0.22 0.22 0.21 0.20 0.19 0.18 0.18 0.17 0.16
0.07 0.07 0.07 0.07 0.07 0.07 0.07 0.07 0.07 0.07 0.07 0.07 0.08 0.08 0.09 0.10 0.10 0.10 0.11 0.11 0.12 0.12 0.13 0.15 0.17 0.19 0.23 0.28 0.33 0.37 0.40 0.42 0.43 0.44 0.45 0.45 0.45 0.45 0.46 0.48 0.47 0.48 0.47 0.46 0.46 0.47 0.47 0.47 0.47 0.47 0.47 0.47 0.46 0.44 0.44 0.44 0.44 0.43 0.43 0.42 0.40 0.36 0.32 0.31 0.29 0.29 0.28 0.28 0.27 0.26 0.26 0.25 0.24 0.24 0.23 0.22 0.21 0.21 0.21 0.20 0.19 0.18 0.17 0.17 0.15
0.07 0.07 0.07 0.07 0.07 0.07 0.07 0.07 0.07 0.07 0.07 0.07 0.08 0.08 0.09 0.10 0.10 0.11 0.12 0.13 0.13 0.13 0.13 0.14 0.16 0.18 0.22 0.25 0.29 0.33 0.36 0.39 0.42 0.45 0.45 0.45 0.44 0.43 0.44 0.46 0.46 0.46 0.46 0.46 0.45 0.45 0.45 0.45 0.44 0.43 0.44 0.44 0.43 0.42 0.42 0.42 0.42 0.42 0.41 0.40 0.37 0.33 0.31 0.30 0.28 0.28 0.27 0.26 0.26 0.25 0.25 0.25 0.24 0.23 0.22 0.21 0.21 0.20 0.20 0.19 0.18 0.17 0.16 0.16 0.14
0.07 0.07 0.08 0.08 0.08 0.08 0.08 0.08 0.08 0.08 0.08 0.08 0.08 0.08 0.09 0.10 0.12 0.12 0.12 0.13 0.15 0.15 0.15 0.14 0.15 0.17 0.20 0.23 0.27 0.30 0.33 0.38 0.43 0.44 0.44 0.44 0.44 0.44 0.45 0.46 0.46 0.46 0.46 0.46 0.45 0.43 0.43 0.42 0.42 0.41 0.41 0.41 0.40 0.40 0.40 0.40 0.39 0.39 0.38 0.37 0.34 0.31 0.29 0.28 0.27 0.27 0.27 0.26 0.26 0.25 0.24 0.23 0.23 0.22 0.21 0.20 0.20 0.19 0.19 0.18 0.17 0.17 0.16 0.15 0.14
0.11 0.12 0.12 0.12 0.12 0.12 0.12 0.11 0.10 0.10 0.09 0.09 0.09 0.09 0.09 0.09 0.10 0.11 0.11 0.11 0.12 0.14 0.15 0.16 0.17 0.18 0.19 0.21 0.25 0.29 0.32 0.37 0.40 0.43 0.43 0.43 0.43 0.43 0.44 0.45 0.45 0.44 0.44 0.44 0.43 0.42 0.40 0.39 0.38 0.38 0.38 0.38 0.38 0.38 0.39 0.38 0.37 0.36 0.35 0.34 0.32 0.30 0.29 0.28 0.27 0.27 0.26 0.25 0.24 0.24 0.23 0.22 0.21 0.21 0.20 0.19 0.19 0.18 0.18 0.17 0.17 0.16 0.15 0.14 0.14
0.11 0.11 0.11 0.11 0.12 0.12 0.12 0.12 0.12 0.11 0.11 0.10 0.10 0.09 0.09 0.09 0.09 0.11 0.12 0.12 0.13 0.13 0.13 0.15 0.16 0.18 0.19 0.21 0.24 0.26 0.30 0.33 0.38 0.40 0.42 0.43 0.42 0.42 0.43 0.44 0.44 0.43 0.42 0.42 0.39 0.39 0.40 0.39 0.37 0.37 0.37 0.36 0.36 0.37 0.37 0.36 0.35 0.34 0.33 0.31 0.30 0.29 0.29 0.28 0.28 0.26 0.25 0.24 0.23 0.22 0.22 0.21 0.20 0.20 0.20 0.19 0.18 0.17 0.17 0.16 0.16 0.15 0.15 0.14 0.14
0.10 0.10 0.11 0.11 0.11 0.11 0.12 0.12 0.11 0.11 0.11 0.11 0.10 0.10 0.10 0.10 0.09 0.09 0.11 0.13 0.13 0.13 0.14 0.15 0.16 0.17 0.18 0.19 0.23 0.26 0.28 0.31 0.35 0.38 0.41 0.42 0.42 0.41 0.41 0.42 0.42 0.43 0.41 0.38 0.36 0.36 0.37 0.38 0.37 0.36 0.36 0.35 0.35 0.35 0.35 0.35 0.34 0.32 0.31 0.30 0.28 0.28 0.28 0.28 0.27 0.26 0.25 0.24 0.23 0.22 0.22 0.21 0.21 0.20 0.19 0.19 0.18 0.17 0.16 0.16 0.15 0.15 0.14 0.14 0.13
0.11 0.11 0.11 0.11 0.11 0.11 0.12 0.12 0.12 0.12 0.12 0.11 0.11 0.11 0.11 0.11 0.11 0.10 0.09 0.09 0.11 0.12 0.13 0.13 0.15 0.16 0.17 0.19 0.21 0.25 0.28 0.30 0.32 0.35 0.38 0.40 0.41 0.40 0.39 0.39 0.40 0.41 0.40 0.38 0.36 0.35 0.35 0.35 0.36 0.35 0.35 0.35 0.35 0.34 0.33 0.33 0.32 0.31 0.30 0.29 0.29 0.28 0.27 0.27 0.26 0.25 0.25 0.24 0.24 0.22 0.22 0.21 0.20 0.19 0.19 0.18 0.17 0.17 0.16 0.16 0.15 0.14 0.14 0.13 0.12
0.12 0.12 0.12 0.12 0.12 0.12 0.12 0.12 0.12 0.12 0.11 0.11 0.11 0.11 0.11 0.11 0.11 0.10 0.10 0.09 0.09 0.09 0.10 0.12 0.14 0.15 0.15 0.17 0.20 0.23 0.26 0.29 0.30 0.33 0.36 0.38 0.39 0.39 0.38 0.36 0.36 0.36 0.36 0.36 0.35 0.34 0.34 0.34 0.35 0.35 0.35 0.35 0.34 0.34 0.33 0.32 0.31 0.30 0.29 0.29 0.28 0.28 0.27 0.26 0.26 0.25 0.25 0.24 0.23 0.22 0.21 0.20 0.20 0.19 0.18 0.17 0.17 0.16 0.16 0.15 0.15 0.14 0.13 0.12 0.12
0.12 0.12 0.13 0.13 0.13 0.13 0.12 0.12 0.12 0.12 0.12 0.12 0.12 0.12 0.12 0.12 0.11 0.11 0.10 0.10 0.09 0.09 0.10 0.12 0.13 0.14 0.15 0.16 0.18 0.21 0.24 0.27 0.29 0.31 0.33 0.36 0.37 0.37 0.34 0.33 0.34 0.35 0.34 0.34 0.34 0.34 0.34 0.34 0.34 0.35 0.35 0.34 0.34 0.33 0.32 0.31 0.30 0.30 0.29 0.29 0.28 0.27 0.26 0.26 0.25 0.25 0.24 0.22 0.21 0.21 0.20 0.20 0.19 0.19 0.18 0.17 0.16 0.16 0.15 0.15 0.14 0.13 0.13 0.12 0.12
0.13 0.13 0.13 0.13 0.13 0.13 0.13 0.13 0.13 0.12 0.12 0.12 0.12 0.12 0.12 0.12 0.12 0.12 0.11 0.11 0.11 0.11 0.12 0.12 0.13 0.14 0.15 0.16 0.17 0.20 0.23 0.26 0.27 0.29 0.31 0.33 0.35 0.35 0.34 0.34 0.34 0.35 0.34 0.33 0.33 0.33 0.33 0.33 0.34 0.34 0.34 0.33 0.33 0.32 0.31 0.31 0.30 0.29 0.29 0.28 0.27 0.27 0.26 0.25 0.24 0.23 0.22 0.21 0.21 0.20 0.19 0.19 0.19 0.18 0.17 0.16 0.16 0.15 0.15 0.14 0.13 0.13 0.12 0.12 0.12
0.14 0.14 0.13 0.13 0.13 0.13 0.13 0.13 0.13 0.13 0.13 0.13 0.13 0.13 0.12 0.12 0.12 0.12 0.11 0.11 0.12 0.12 0.12 0.13 0.13 0.13 0.12 0.13 0.17 0.19 0.22 0.24 0.26 0.27 0.29 0.31 0.32 0.33 0.34 0.34 0.34 0.33 0.33 0.33 0.32 0.32 0.33 0.33 0.33 0.33 0.33 0.32 0.31 0.31 0.30 0.29 0.29 0.29 0.28 0.27 0.27 0.26 0.25 0.24 0.24 0.22 0.21 0.21 0.20 0.19 0.19 0.18 0.18 0.17 0.16 0.15 0.15 0.14 0.14 0.13 0.13 0.12 0.12 0.12 0.11
0.14 0.13 0.13 0.13 0.13 0.13 0.13 0.13 0.13 0.13 0.13 0.13 0.13 0.12 0.12 0.11 0.11 0.11 0.11 0.11 0.11 0.12 0.13 0.13 0.13 0.13 0.13 0.15 0.16 0.19 0.21 0.21 0.22 0.22 0.24 0.27 0.30 0.32 0.33 0.33 0.33 0.33 0.33 0.33 0.32 0.32 0.32 0.32 0.32 0.32 0.31 0.31 0.30 0.29 0.29 0.28 0.28 0.27 0.27 0.26 0.26 0.25 0.24 0.23 0.22 0.21 0.20 0.20 0.19 0.19 0.18 0.17 0.17 0.16 0.16 0.15 0.14 0.14 0.13 0.13 0.12 0.12 0.11 0.11 0.11
0.13 0.13 0.13 0.13 0.13 0.13 0.13 0.13 0.13 0.12 0.12 0.12 0.12 0.12 0.12 0.12 0.12 0.12 0.12 0.12 0.13 0.13 0.14 0.14 0.14 0.14 0.15 0.16 0.17 0.19 0.19 0.20 0.21 0.22 0.23 0.24 0.26 0.29 0.31 0.32 0.32 0.32 0.31 0.31 0.31 0.31 0.31 0.31 0.31 0.30 0.29 0.29 0.28 0.28 0.28 0.27 0.27 0.26 0.26 0.25 0.24 0.24 0.23 0.22 0.21 0.20 0.19 0.19 0.18 0.18 0.17 0.16 0.16 0.15 0.15 0.14 0.13 0.13 0.13 0.12 0.12 0.12 0.12 0.12 0.11
0.13 0.13 0.13 0.13 0.13 0.13 0.13 0.13 0.12 0.12 0.12 0.12 0.13 0.13 0.13 0.13 0.13 0.13 0.14 0.14 0.14 0.14 0.14 0.15 0.15 0.15 0.16 0.17 0.18 0.20 0.20 0.20 0.21 0.22 0.23 0.24 0.25 0.27 0.29 0.30 0.31 0.30 0.30 0.30 0.30 0.30 0.30 0.30 0.29 0.28 0.28 0.27 0.27 0.27 0.27 0.26 0.26 0.25 0.25 0.24 0.23 0.22 0.21 0.20 0.20 0.19 0.19 0.18 0.17 0.17 0.16 0.15 0.15 0.14 0.13 0.13 0.13 0.13 0.13 0.12 0.12 0.12 0.12 0.12 0.11
0.13 0.13 0.13 0.13 0.13 0.13 0.12 0.12 0.12 0.12 0.12 0.12 0.12 0.12 0.12 0.12 0.12 0.12 0.13 0.14 0.14 0.14 0.14 0.14 0.15 0.15 0.16 0.18 0.19 0.20 0.21 0.21 0.22 0.22 0.23 0.24 0.25 0.26 0.27 0.28 0.29 0.29 0.29 0.29 0.29 0.29 0.29 0.29 0.28 0.27 0.27 0.26 0.26 0.26 0.25 0.25 0.25 0.24 0.23 0.22 0.21 0.20 0.20 0.19 0.19 0.18 0.18 0.17 0.16 0.16 0.15 0.15 0.14 0.14 0.13 0.13 0.13 0.13 0.12 0.12 0.12 0.12 0.12 0.12 0.12
0.13 0.12 0.12 0.12 0.12 0.12 0.11 0.11 0.11 0.11 0.11 0.11 0.11 0.11 0.11 0.11 0.12 0.12 0.12 0.13 0.14 0.14 0.13 0.13 0.14 0.15 0.17 0.18 0.20 0.21 0.21 0.22 0.22 0.22 0.23 0.24 0.24 0.25 0.26 0.26 0.27 0.28 0.28 0.28 0.28 0.28 0.28 0.27 0.26 0.26 0.26 0.26 0.25 0.25 0.24 0.24 0.23 0.23 0.22 0.21 0.20 0.19 0.19 0.18 0.18 0.17 0.17 0.16 0.15 0.15 0.14 0.14 0.13 0.13 0.12 0.12 0.12 0.12 0.12 0.12 0.12 0.12 0.12 0.12 0.12
0.13 0.12 0.12 0.12 0.12 0.12 0.12 0.12 0.12 0.11 0.11 0.11 0.11 0.11 0.11 0.11 0.11 0.11 0.12 0.12 0.13 0.13 0.13 0.14 0.15 0.16 0.18 0.19 0.20 0.20 0.20 0.21 0.22 0.22 0.22 0.23 0.23 0.24 0.24 0.25 0.26 0.26 0.26 0.27 0.27 0.27 0.26 0.26 0.25 0.25 0.25 0.25 0.24 0.24 0.23 0.23 0.22 0.21 0.20 0.19 0.19 0.18 0.18 0.17 0.17 0.16 0.15 0.15 0.14 0.14 0.13 0.13 0.13 0.12 0.12 0.12 0.12 0.12 0.12 0.12 0.12 0.12 0.12 0.12 0.12
0.13 0.13 0.12 0.12 0.12 0.12 0.12 0.13 0.13 0.13 0.12 0.12 0.12 0.12 0.12 0.12 0.12 0.12 0.13 0.13 0.14 0.14 0.15 0.16 0.17 0.18 0.18 0.19 0.19 0.20 0.20 0.21 0.21 0.22 0.22 0.22 0.22 0.23 0.23 0.24 0.24 0.25 0.25 0.25 0.25 0.25 0.25 0.24 0.24 0.23 0.23 0.23 0.23 0.22 0.22 0.21 0.21 0.20 0.19 0.19 0.18 0.17 0.17 0.16 0.16 0.15 0.15 0.14 0.14 0.13 0.13 0.13 0.12 0.12 0.12 0.12 0.12 0.12 0.12 0.12 0.12 0.12 0.12 0.12 0.11
0.14 0.13 0.13 0.13 0.13 0.13 0.13 0.13 0.14 0.14 0.14 0.13 0.13 0.13 0.14 0.14 0.15 0.15 0.15 0.15 0.16 0.16 0.17 0.17 0.18 0.18 0.19 0.19 0.20 0.20 0.20 0.21 0.21 0.21 0.21 0.22 0.22 0.22 0.22 0.23 0.23 0.23 0.23 0.24 0.24 0.24 0.24 0.23 0.23 0.23 0.22 0.22 0.21 0.21 0.20 0.20 0.19 0.19 0.18 0.18 0.17 0.16 0.16 0.16 0.15 0.15 0.14 0.14 0.13 0.13 0.12 0.12 0.12 0.12 0.12 0.12 0.12 0.12 0.12 0.12 0.12 0.12 0.12 0.11 0.11
0.14 0.14 0.14 0.13 0.13 0.13 0.14 0.14 0.15 0.15 0.15 0.15 0.15 0.15 0.15 0.15 0.16 0.16 0.16 0.16 0.17 0.17 0.17 0.18 0.18 0.19 0.19 0.19 0.19 0.20 0.20 0.20 0.20 0.20 0.21 0.21 0.21 0.21 0.21 0.21 0.22 0.22 0.22 0.22 0.23 0.23 0.23 0.22 0.22 0.22 0.21 0.21 0.20 0.19 0.19 0.18 0.18 0.17 0.17 0.17 0.16 0.16 0.15 0.15 0.15 0.14 0.13 0.13 0.13 0.12 0.12 0.12 0.12 0.12 0.12 0.12 0.12 0.12 0.12 0.12 0.12 0.12 0.12 0.12 0.11
0.14 0.14 0.14 0.14 0.14 0.14 0.14 0.15 0.15 0.15 0.15 0.15 0.16 0.16 0.16 0.17 0.17 0.17 0.17 0.17 0.18 0.18 0.18 0.18 0.18 0.19 0.19 0.19 0.19 0.19 0.19 0.19 0.20 0.20 0.20 0.20 0.20 0.20 0.20 0.21 0.21 0.21 0.21 0.21 0.22 0.22 0.22 0.21 0.21 0.20 0.20 0.19 0.19 0.18 0.17 0.17 0.17 0.16 0.16 0.15 0.15 0.15 0.14 0.14 0.13 0.13 0.13 0.13 0.12 0.12 0.12 0.12 0.12 0.12 0.12 0.12 0.12 0.12 0.12 0.12 0.12 0.12 0.12 0.11 0.11
0.15 0.14 0.14 0.14 0.14 0.14 0.15 0.15 0.15 0.15 0.15 0.15 0.15 0.16 0.16 0.16 0.16 0.16 0.17 0.17 0.17 0.17 0.17 0.17 0.18 0.18 0.18 0.18 0.19 0.19 0.19 0.19 0.19 0.19 0.19 0.19 0.19 0.19 0.20 0.20 0.20 0.20 0.20 0.20 0.20 0.21 0.20 0.20 0.19 0.19 0.18 0.18 0.17 0.17 0.16 0.16 0.15 0.15 0.14 0.14 0.14 0.14 0.13 0.13 0.12 0.12 0.12 0.12 0.12 0.12 0.12 0.12 0.12 0.12 0.12 0.12 0.12 0.12 0.12 0.12 0.12 0.12 0.11 0.11 0.10
0.14 0.14 0.15 0.15 0.15 0.15 0.15 0.15 0.15 0.15 0.15 0.15 0.15 0.15 0.15 0.16 0.16 0.16 0.16 0.16 0.16 0.16 0.16 0.17 0.17 0.17 0.17 0.17 0.18 0.18 0.18 0.18 0.18 0.19 0.19 0.19 0.19 0.19 0.19 0.19 0.19 0.19 0.19 0.19 0.19 0.19 0.19 0.18 0.18 0.17 0.17 0.16 0.16 0.16 0.15 0.15 0.14 0.14 0.13 0.13 0.13 0.12 0.12 0.12 0.12 0.12 0.12 0.12 0.12 0.12 0.12 0.12 0.12 0.12 0.12 0.12 0.12 0.12 0.12 0.12 0.12 0.12 0.11 0.10 0.10
0.13 0.13 0.13 0.14 0.14 0.15 0.15 0.15 0.15 0.15 0.15 0.15 0.15 0.15 0.15 0.15 0.16 0.16 0.16 0.16 0.16 0.16 0.16 0.16 0.16 0.17 0.17 0.17 0.17 0.17 0.18 0.18 0.18 0.18 0.18 0.18 0.18 0.18 0.18 0.18 0.18 0.18 0.18 0.18 0.18 0.17 0.17 0.16 0.16 0.16 0.15 0.15 0.15 0.14 0.14 0.13 0.13 0.12 0.12 0.12 0.12 0.11 0.11 0.12 0.12 0.12 0.12 0.12 0.12 0.12 0.12 0.12 0.12 0.12 0.12 0.12 0.12 0.12 0.12 0.12 0.12 0.11 0.10 0.10 0.10
Wind_Speed
34 35 35 35 35 35 36 37 37 38 39 39 40 39 39 38 38 38 39 40 41 42 43 43 44 44 45 45 45 46 46 46 46 46 46 46 46 45 45 44 44 44 43 43 42 42 42 41 41 40 39 38 37 36 35 35 34 34 33 33 33 33 32 31 29 29 29 30 30 29 29 29 30 29 29 30 31 31 32 32 33 33 34 34 34
37 37 37 37 37 36 36 37 38 39 40 40 41 41 41 40 40 40 40 40 40 42 43 44 45 45 46 46 46 47 47 47 47 47 48 48 47 46 46 46 46 45 44 44 44 43 43 43 42 41 40 39 38 37 36 35 35 34 34 34 34 33 32 31 30 29 29 30 30 30 30 30 30 30 30 31 31 32 33 33 34 34 35 35 35
39 39 39 38 38 37 37 37 38 39 40 41 42 42 42 42 42 43 43 42 42 42 43 44 45 46 47 48 48 48 48 49 49 49 49 49 49 48 48 48 47 47 46 46 45 45 45 44 44 43 41 40 39 38 37 36 36 35 35 34 34 33 33 32 32 31 31 31 31 31 31 31 31 32 32 33 33 33 34 34 34 35 35 35 35
42 42 42 41 41 40 40 40 40 40 41 42 43 43 43 43 44 45 45 46 45 45 45 45 46 47 48 49 49 50 50 50 50 51 51 51 51 50 50 50 49 49 48 47 47 46 46 45 45 44 43 42 41 39 38 37 37 36 35 35 34 34 34 34 33 33 33 33 33 33 33 33 33 33 34 34 34 34 34 34 34 34 34 34 34
45 45 44 44 44 44 43 42 42 42 42 43 44 44 45 45 45 45 46 47 47 47 47 47 48 48 49 50 50 51 52 52 52 52 53 53 53 52 52 52 51 50 49 49 48 48 47 47 46 45 44 43 42 41 40 39 38 37 36 36 35 35 35 35 35 35 35 34 34 35 35 35 35 35 35 35 35 35 34 34 34 34 34 34 34
46 46 46 46 46 46 45 44 43 43 43 44 44 45 46 47 47 47 47 48 48 49 49 50 50 51 51 51 51 51 52 53 54 54 54 54 54 54 54 54 53 52 51 50 49 49 48 47 46 46 46 44 43 42 41 40 39 39 38 37 37 36 36 36 36 36 36 36 36 36 36 36 36 36 36 36 36 36 35 35 35 35 35 35 35
47 47 47 47 47 47 47 46 45 44 44 44 44 44 45 47 49 50 50 50 51 51 52 52 53 53 54 54 54 53 53 53 54 55 55 56 56 56 56 55 54 54 53 52 51 50 49 48 48 47 47 46 45 44 43 42 41 40 40 39 39 38 38 38 38 38 38 37 37 37 37 37 38 37 37 36 36 36 36 36 36 36 35 35 35
47 47 47 48 47 47 47 47 47 46 45 44 44 44 45 47 49 50 51 52 53 53 54 54 55 56 56 57 57 57 56 56 55 56 56 56 57 57 58 57 56 55 55 54 53 52 51 50 49 48 48 47 46 46 45 44 43 42 41 41 41 40 40 40 40 40 39 39 38 38 38 38 38 38 37 37 37 37 37 37 37 36 36 36 36
48 48 48 48 48 48 48 48 48 47 46 45 45 45 45 46 48 50 52 53 53 54 54 55 56 57 58 58 59 59 59 59 59 58 58 58 58 58 59 59 58 57 56 56 55 54 53 52 51 50 49 48 48 47 47 46 45 44 43 43 43 42 42 42 42 41 41 40 40 39 39 39 39 38 38 38 37 37 37 37 37 37 36 36 37
49 49 48 49 49 48 48 48 48 48 47 46 46 46 46 47 48 49 51 52 53 54 54 55 56 57 58 59 60 60 60 60 60 60 60 60 60 60 60 60 60 59 58 57 56 55 54 53 52 51 51 50 49 49 48 48 47 46 45 45 45 45 44 44 43 43 42 42 41 40 40 40 40 39 38 38 38 38 38 38 37 37 37 37 37
49 50 49 49 49 48 48 48 48 48 47 47 47 47 48 48 48 49 50 52 53 54 55 55 56 56 57 58 59 60 60 60 60 61 61 60 61 61 61 60 60 60 60 59 58 57 56 55 54 53 52 51 50 49 49 49 48 47 47 47 47 46 46 45 44 44 43 43 42 41 41 40 40 39 39 39 38 38 38 38 37 37 37 37 37
50 50 50 50 50 49 49 49 49 49 49 49 49 49 50 50 50 50 51 52 53 54 55 56 56 56 57 58 58 59 59 59 59 60 60 60 60 60 60 60 60 61 61 60 59 58 57 56 55 54 53 52 51 50 50 49 49 49 48 48 48 48 47 46 45 44 44 43 43 42 41 40 40 40 40 39 39 38 38 38 38 38 37 38 38
52 52 52 51 51 51 51 51 51 51 51 51 51 51 51 52 52 52 53 53 53 55 56 56 57 57 58 59 59 59 59 59 59 60 60 61 61 60 60 60 60 61 61 60 60 59 58 57 56 55 54 53 52 51 50 50 50 49 49 49 49 48 48 47 46 45 45 44 43 43 42 41 40 40 40 39 39 38 38 38 38 38 38 39 39
55 55 54 53 52 52 52 52 53 53 53 53 53 53 53 53 53 53 54 53 53 54 55 56 57 57 58 59 60 60 60 60 60 60 60 60 61 61 60 60 61 61 60 60 60 60 59 58 57 56 55 54 54 52 51 51 51 51 50 50 49 48 48 48 47 47 46 45 44 44 43 42 41 40 40 40 39 39 38 38 38 38 39 40 41
56 56 55 55 54 54 53 53 54 54 54 54 55 55 55 55 54 54 54 54 53 53 53 54 56 57 57 58 59 60 61 61 61 60 60 60 60 60 60 60 60 60 60 60 61 60 60 59 58 57 56 56 55 54 53 53 52 52 51 50 48 48 49 49 48 47 46 46 45 44 43 42 41 40 40 39 39 39 39 39 39 39 40 41 41
56 56 56 56 56 56 56 56 56 55 55 55 55 55 55 55 54 54 54 53 53 53 52 53 54 56 57 57 58 59 60 60 60 60 60 61 60 59 59 59 59 59 59 60 60 60 59 59 58 57 57 57 56 56 55 54 53 52 50 49 48 48 49 49 48 47 46 46 45 44 43 42 41 40 40 39 39 39 39 40 40 40 41 41 42
56 56 56 56 56 57 57 57 57 57 56 56 56 55 55 54 54 54 53 53 53 52 53 53 53 54 56 57 58 59 59 59 60 60 60 60 59 58 58 58 58 58 58 58 59 59 59 59 58 58 58 57 57 57 56 54 52 50 49 48 48 49 49 48 48 47 47 46 45 44 43 42 42 41 40 40 40 39 40 41 41 41 41 42 42
57 57 57 57 57 57 57 57 57 57 56 56 56 55 55 54 54 53 53 53 53 53 53 53 53 54 55 56 57 58 59 59 60 60 60 59 59 58 58 58 58 58 57 57 57 57 58 59 59 58 57 57 57 56 55 54 52 50 49 49 49 49 49 48 47 46 46 46 45 45 44 43 43 42 41 40 40 40 41 41 42 42 42 43 43
58 58 58 58 58 58 58 58 58 58 58 57 56 56 56 55 54 54 54 54 54 53 53 52 52 52 53 54 55 57 58 58 59 60 59 59 59 58 58 58 58 57 56 56 56 56 56 57 57 57 56 56 56 55 54 53 52 51 50 49 49 49 48 47 46 45 45 45 45 45 44 43 42 41 40 41 41 42 42 42 43 43 43 43 43
59 59 59 59 59 59 59 59 59 59 59 59 58 58 57 57 56 55 55 55 55 54 53 52 52 52 51 52 53 54 55 55 56 58 58 58 59 59 59 58 58 57 56 55 54 54 54 54 55 55 55 54 54 54 53 52 52 51 50 50 49 48 46 45 45 45 44 44 44 44 44 43 42 41 42 42 42 43 43 43 43 44 44 44 43
60 60 60 60 60 60 59 59 60 60 60 60 60 59 59 58 58 57 56 56 56 55 54 53 53 52 51 51 51 51 52 53 54 56 57 58 59 59 59 58 57 56 55 54 54 53 53 52 53 53 53 53 53 52 52 51 51 51 50 50 48 47 45 45 45 45 44 43 43 42 42 42 42 42 42 43 43 43 43 43 44 44 44 44 44
61 61 61 61 61 62 61 61 60 60 60 60 61 61 60 59 59 59 58 57 57 56 56 55 54 53 52 51 50 50 51 52 53 54 55 57 57 57 57 56 56 55 54 54 54 53 53 53 52 52 52 52 52 52 51 50 50 49 49 48 47 46 45 45 45 44 43 43 42 41 41 41 41 42 42 43 43 42 42 43 43 43 44 44 45
62 63 63 63 63 63 63 62 62 61 61 61 61 62 61 60 60 59 59 58 57 56 56 55 54 54 53 51 50 50 50 51 52 53 54 55 56 56 55 55 54 54 54 54 54 54 54 53 52 52 52 52 52 52 51 50 48 48 48 47 46 45 45 44 44 43 42 42 42 42 42 42 42 42 42 42 42 41 42 42 42 43 44 44 45
63 64 64 64 64 64 63 63 63 63 63 63 62 62 62 61 61 60 59 59 58 57 55 54 54 53 53 52 51 50 49 49 50 52 53 54 54 55 54 54 53 53 53 53 53 53 53 53 52 52 52 52 52 52 51 49 48 48 47 46 45 44 44 44 44 42 42 43 43 42 42 42 42 42 42 41 41 41 41 42 42 43 43 44 45
65 66 66 66 66 66 65 65 65 64 64 64 64 63 63 62 61 61 59 59 58 57 56 55 54 53 53 52 51 50 49 48 48 49 51 53 53 54 54 53 52 52 52 51 51 51 52 51 52 52 52 52 52 52 50 49 48 47 47 46 45 44 44 44 43 43 43 43 43 43 43 43 42 42 41 40 40 41 41 41 42 42 43 44 44
67 67 68 68 68 67 67 67 66 66 66 65 65 64 63 63 62 61 60 59 59 58 57 56 55 54 53 52 52 51 50 49 48 48 48 50 51 53 53 53 52 51 51 50 49 49 49 49 50 50 50 51 51 50 49 48 47 47 47 46 45 44 44 43 43 43 43 42 42 42 43 42 41 41 40 40 40 40 40 41 42 42 43 44 44
68 68 68 68 68 68 68 68 68 67 66 66 65 65 64 63 63 62 61 60 59 58 58 57 56 55 54 53 52 51 50 49 48 47 47 48 49 50 51 51 51 50 49 48 48 48 48 48 48 49 49 49 49 48 48 47 46 46 46 45 44 44 43 43 43 43 42 42 42 42 42 42 41 40 40 40 40 40 41 41 42 43 43 44 44
68 69 69 68 68 67 67 68 67 67 66 66 66 66 65 64 64 63 62 60 59 58 58 57 57 56 54 53 52 52 51 50 49 48 47 47 48 48 50 50 49 48 47 47 47 46 47 47 47 47 47 47 47 47 47 47 46 45 44 44 43 43 43 43 42 42 42 42 42 42 42 41 41 40 39 39 40 40 41 41 42 43 43 44 44
68 68 67 66 66 65 65 65 65 65 65 65 65 65 66 65 65 65 63 62 61 60 59 59 58 57 55 54 53 52 51 50 50 49 48 48 48 48 49 50 49 47 46 46 46 45 45 45 45 46 46 46 47 47 47 47 46 45 43 42 42 42 42 42 42 42 42 42 42 41 41 40 40 39 39 40 40 41 41 41 42 42 43 43 44
65 64 63 62 62 61 61 62 62 62 63 63 64 65 65 66 66 66 66 65 63 62 61 61 60 59 58 57 56 55 54 52 51 50 50 49 48 48 48 50 50 48 46 46 45 45 44 44 44 45 46 46 46 45 45 45 45 44 43 42 42 42 43 43 42 42 42 41 41 40 39 39 39 39 40 40 41 41 41 41 42 42 43 44 44
62 61 60 59 59 59 59 59 59 59 60 60 61 62 63 64 65 65 66 65 64 63 63 63 62 61 60 59 58 58 57 55 53 51 50 49 48 48 48 48 49 48 47 45 44 45 45 45 44 45 45 46 46 45 45 45 45 44 43 43 43 43 43 43 43 42 41 40 39 39 39 39 39 40 40 41 41 41 41 42 42 43 44 44 44
60 59 58 57 57 57 56 56 56 55 56 56 57 57 58 59 60 61 61 62 62 61 61 61 62 62 62 61 60 58 57 56 54 53 51 50 49 48 48 48 48 48 47 46 45 45 46 46 45 46 46 46 46 46 46 45 46 46 45 45 45 45 44 44 43 42 41 40 39 39 39 40 40 40 41 41 41 41 41 42 42 43 43 44 44
58 57 56 55 55 54 54 53 52 52 52 52 53 53 54 54 55 55 56 57 58 58 58 58 59 60 61 61 60 59 57 56 55 53 52 51 50 49 49 49 49 48 48 47 45 45 45 45 46 46 47 47 47 47 47 47 47 48 47 46 46 45 44 43 42 41 40 40 40 40 40 40 40 40 40 40 40 41 41 42 42 43 43 43 44
55 54 53 53 52 51 50 49 49 48 49 49 49 49 49 50 51 52 52 52 53 54 55 55 56 57 58 58 58 58 58 56 55 54 53 52 51 49 49 50 50 49 49 47 46 45 44 44 44 45 45 46 46 46 47 47 48 48 47 47 46 44 43 42 41 41 40 40 40 40 40 40 40 40 40 40 40 40 41 41 42 42 43 43 43
50 50 50 49 49 48 47 47 46 46 46 46 47 47 48 49 50 51 51 51 52 52 52 52 53 54 55 55 56 57 58 57 56 54 53 52 51 50 49 50 50 49 48 47 46 45 44 44 44 43 44 44 44 45 45 46 46 46 46 45 44 43 43 42 41 41 41 41 41 40 40 40 40 40 40 40 40 40 41 41 42 42 43 43 44
44 44 44 44 44 43 43 43 43 43 43 44 44 45 45 46 46 47 48 49 50 50 50 50 50 51 52 53 54 56 57 57 56 55 53 52 51 51 50 50 50 50 48 47 46 45 45 44 44 44 44 44 44 45 44 44 44 44 44 44 43 42 42 41 41 41 41 40 40 40 40 40 40 40 40 40 40 40 41 41 42 42 43 43 44
40 39 39 39 39 39 39 39 40 40 40 40 40 40 40 41 42 42 43 45 46 46 47 47 47 48 49 49 51 53 55 56 56 56 54 53 52 52 52 51 51 50 50 48 48 47 46 45 45 44 44 44 44 44 44 43 43 43 43 42 42 41 41 40 40 40 40 40 40 40 40 40 39 39 39 39 39 40 40 41 41 42 42 43 44
36 36 36 36 36 36 36 36 36 37 36 36 36 37 37 38 39 40 41 42 43 43 43 44 45 45 46 46 47 49 52 54 55 55 54 53 53 53 52 52 52 51 50 49 49 47 46 45 45 44 43 43 42 42 43 42 42 42 41 41 41 41 40 40 40 40 40 40 40 40 39 39 38 38 38 38 39 40 40 41 41 42 43 43 44
34 34 34 35 34 33 33 33 32 32 32 32 33 33 34 34 35 36 37 38 40 40 41 41 42 43 43 43 44 46 48 50 52 53 53 52 52 52 52 52 52 51 50 49 48 47 46 45 44 43 43 42 42 42 42 42 41 41 41 41 40 40 40 40 40 40 40 40 39 39 38 38 38 38 38 39 39 40 40 41 41 42 43 43 44
31 31 31 32 31 31 30 29 29 28 29 29 29 29 30 31 31 32 33 34 36 37 38 38 39 40 41 41 42 43 45 47 49 50 51 51 51 51 51 51 51 50 49 49 48 46 45 44 43 43 42 42 42 42 42 41 41 41 41 40 40 40 40 40 40 40 39 39 38 38 38 37 37 38 38 39 39 39 40 41 41 42 43 44 44
29 29 29 29 28 28 27 26 26 26 26 26 26 26 27 28 28 29 30 31 32 33 34 35 36 37 38 39 41 41 42 43 45 47 48 48 48 49 50 50 50 49 49 48 47 46 44 43 42 42 42 41 41 41 41 41 41 40 40 40 39 40 40 40 40 39 38 38 37 37 37 37 37 37 38 38 39 39 40 41 41 42 43 44 45
28 27 26 26 25 24 24 24 24 24 24 24 24 24 24 25 25 26 27 27 28 29 31 32 33 34 35 37 38 39 40 40 41 43 44 45 45 46 47 47 47 47 47 46 46 45 44 42 42 42 41 41 41 41 41 40 40 40 39 39 39 39 39 39 38 37 37 37 36 36 36 36 37 37 38 38 39 40 40 41 42 43 44 44 45
26 25 24 23 22 22 21 21 21 21 21 21 21 21 21 21 21 22 23 23 24 26 27 28 29 30 32 33 35 36 37 37 38 39 40 41 41 42 42 43 43 43 43 43 43 43 42 42 41 41 41 41 41 40 40 40 39 39 39 39 39 38 38 37 37 36 36 36 36 36 36 36 36 37 38 38 39 40 40 41 42 43 43 44 44
24 23 22 21 20 19 18 18 18 17 17 17 17 17 17 17 17 18 18 19 20 21 23 24 25 26 28 29 31 32 33 34 35 36 36 36 37 38 38 39 40 39 40 40 40 40 40 40 40 40 40 40 40 39 39 39 39 39 38 38 38 37 37 36 36 35 35 35 35 35 35 36 36 37 37 38 39 39 40 41 42 42 43 43 43
22 21 20 19 18 18 17 17 16 15 14 13 13 13 13 13 13 14 14 15 16 17 19 20 21 23 24 25 27 28 29 30 31 32 33 33 34 35 35 36 37 37 37 38 38 38 38 39 39 39 39 39 39 38 38 38 37 37 37 36 36 36 36 35 35 34 34 34 34 35 35 36 36 37 37 38 38 39 40 40 41 41 42 42 43
21 20 19 18 18 18 17 16 15 14 12 11 11 10 10 10 10 10 11 12 13 14 15 16 17 18 20 21 22 23 25 26 27 29 30 31 31 32 33 33 34 35 35 35 36 36 37 37 38 38 38 37 37 36 36 36 35 35 35 35 34 34 34 33 33 33 33 34 34 34 35 35 36 36 37 37 38 38 39 40 40 41 41 42 43
21 20 18 18 17 17 16 15 14 13 12 11 10 9 9 8 8 8 8 9 10 11 12 13 14 15 16 17 18 19 21 22 24 25 27 28 28 29 30 31 31 32 32 33 34 35 35 36 36 36 36 35 34 34 34 33 33 33 33 32 32 32 32 32 32 33 33 33 33 34 34 34 35 35 36 36 37 37 38 39 40 40 40 41 42
21 20 19 18 17 16 15 15 14 12 11 10 9 8 7 7 7 6 6 7 7 8 9 10 11 12 13 14 15 16 18 19 20 22 23 24 25 26 27 28 28 29 29 30 31 32 33 33 34 34 33 33 32 31 32 32 32 32 31 31 31 31 31 31 32 32 32 32 32 33 33 33 33 34 34 35 36 36 37 38 39 39 40 41 42
23 21 20 18 17 16 15 14 13 12 11 10 9 8 7 6 5 5 4 4 5 5 6 7 8 9 10 11 12 14 15 16 17 19 20 20 21 22 23 24 25 26 26 27 27 28 29 30 30 30 30 30 30 30 30 30 30 30 30 29 29 30 30 30 31 31 31 31 31 31 31 31 32 32 33 34 35 36 37 37 37 38 39 41 42
27 25 22 20 19 17 16 15 13 12 11 10 9 8 7 6 5 4 3 3 3 3 4 5 6 7 8 9 10 12 13 14 15 16 17 18 19 20 21 22 22 23 23 24 25 26 26 27 28 28 28 28 28 28 28 28 28 28 27 27 28 28 28 29 29 30 30 30 30 30 30 30 30 31 32 33 34 35 36 36 37 39 40 42 43
30 29 27 25 22 20 18 16 15 14 13 11 10 9 8 7 5 4 3 2 1 1 2 3 5 6 7 8 10 11 12 13 13 14 15 16 17 18 18 19 19 20 21 22 22 23 24 25 25 25 26 26 26 25 25 25 25 25 26 26 26 27 27 28 28 28 28 28 28 28 28 29 30 31 32 33 34 35 35 36 38 40 41 42 43
Wind_Direction
287 287 285 284 281 279 277 275 273 271 270 268 266 264 262 259 257 256 255 254 253 252 251 250 249 248 247 247 247 247 248 248 248 248 248 249 249 249 250 250 250 251 251 252 252 252 252 253 253 254 254 255 256 257 258 259 260 261 262 263 263 263 262 261 261 261 259 258 259 260 261 263 265 267 269 272 274 276 278 279 281 281 282 283 283
286 286 286 284 282 280 278 277 275 273 270 268 266 264 262 260 258 256 255 254 254 253 252 251 250 249 248 248 248 249 249 249 249 249 249 249 249 250 250 250 250 250 251 251 252 252 252 252 253 253 254 254 255 256 257 258 259 260 261 261 261 261 261 259 259 259 259 259 259 261 262 264 266 267 270 273 275 276 278 279 281 281 282 282 282
285 285 285 285 283 282 280 278 276 274 271 269 266 264 262 260 258 257 255 255 254 253 253 252 252 251 250 250 249 249 250 250 250 250 250 250 250 250 250 250 250 250 251 251 251 251 251 251 252 252 253 253 253 254 256 257 258 259 260 260 260 259 259 258 258 259 259 260 261 262 264 265 267 268 271 274 275 276 278 279 280 280 280 281 282
284 284 284 284 283 282 281 280 278 275 271 269 266 265 263 261 259 258 256 255 254 253 253 253 252 252 252 251 250 250 250 250 250 251 251 251 251 251 251 250 250 250 251 251 251 251 251 251 251 251 252 252 252 253 254 255 257 258 259 259 259 258 258 257 258 259 260 261 262 263 265 267 268 270 272 274 275 276 277 278 278 279 280 280 281
283 282 282 282 282 282 282 281 279 277 274 271 267 265 263 262 260 259 257 256 255 254 253 252 252 252 252 252 251 251 251 251 250 250 250 251 251 251 252 251 251 251 251 251 251 251 251 251 251 251 251 251 251 252 253 254 256 257 257 258 258 258 258 258 258 259 261 262 263 264 266 267 269 271 272 274 275 276 277 277 278 278 280 281 282
283 282 282 281 281 281 281 281 280 279 277 274 271 267 264 261 260 260 259 258 256 255 254 253 253 253 253 252 252 251 251 251 250 250 250 250 251 251 252 252 252 252 251 251 251 251 251 250 251 251 250 250 250 252 253 254 255 256 256 257 258 257 257 258 259 260 261 263 264 265 267 268 269 271 272 273 275 276 276 277 278 279 280 282 283
283 282 281 280 280 279 279 279 279 279 277 275 273 270 266 263 261 260 260 259 258 257 256 255 254 254 254 254 253 253 252 251 251 251 251 251 251 251 251 251 251 251 252 252 251 251 250 250 251 251 251 251 251 252 252 253 255 256 256 257 257 257 257 257 258 260 261 263 264 265 267 268 269 271 272 273 274 275 275 276 278 279 280 282 283
283 282 281 280 278 278 278 277 278 278 277 276 274 272 269 266 263 261 260 259 259 259 258 257 256 255 254 254 254 253 253 253 253 253 252 252 251 252 252 251 251 251 251 252 251 251 250 251 251 251 251 251 252 252 252 253 254 255 256 256 257 257 257 257 258 260 261 263 264 265 267 268 269 270 271 272 273 274 274 275 278 279 280 281 283
282 281 281 279 278 278 277 277 277 277 277 276 274 272 271 269 267 264 261 260 260 260 260 259 258 256 256 255 254 254 254 254 254 254 254 253 252 252 252 252 251 251 251 251 251 250 250 250 251 251 251 251 252 252 253 253 254 255 256 256 256 257 257 258 258 259 261 263 264 265 266 268 269 270 270 271 272 273 274 276 277 279 280 281 282
281 281 280 279 279 278 278 277 277 277 277 276 274 272 271 271 269 267 265 262 261 260 260 259 259 258 256 256 255 255 254 255 255 254 254 253 252 251 251 252 252 251 251 251 250 249 249 250 251 250 250 250 251 252 252 253 254 255 256 257 257 257 257 258 258 259 260 262 263 264 266 267 268 269 270 270 271 273 274 275 277 278 279 281 283
281 281 280 279 279 278 278 277 277 277 276 275 274 273 272 271 271 269 267 265 263 261 260 259 259 258 257 256 256 255 255 255 255 254 253 253 252 251 251 251 251 251 251 250 249 248 249 250 250 250 250 250 251 251 252 253 253 254 255 256 257 258 258 258 258 258 259 261 262 263 265 266 267 267 268 269 270 271 273 274 276 277 279 281 283
282 281 281 280 279 278 277 277 277 276 276 275 275 274 274 273 272 271 270 268 266 263 261 260 259 259 258 257 256 256 255 255 254 253 253 252 252 251 250 250 250 251 251 250 249 248 249 249 250 250 250 250 251 251 252 252 253 254 255 257 258 258 258 258 258 258 259 260 261 262 263 265 265 266 267 268 269 270 272 274 276 277 279 281 283
283 282 282 281 279 278 277 277 276 276 276 276 276 275 275 275 275 274 272 271 269 266 264 262 260 259 258 258 257 256 256 255 255 254 253 252 251 251 250 249 249 249 250 249 249 248 249 249 249 250 250 250 250 251 252 252 253 254 256 258 259 258 256 256 258 258 258 258 259 260 262 262 263 264 265 266 268 270 272 274 275 277 279 282 283
283 282 282 281 280 280 279 278 278 277 276 276 276 276 276 276 276 275 274 272 271 269 266 263 261 259 259 258 258 257 257 256 255 254 254 253 251 251 250 249 249 249 249 249 249 249 249 249 249 249 250 250 250 251 251 252 253 255 257 258 258 256 254 254 255 256 257 257 258 259 260 261 262 263 264 265 268 270 271 273 275 277 280 282 283
282 282 281 281 280 280 280 280 279 278 277 276 276 276 276 275 275 274 273 272 271 270 268 265 262 260 259 259 258 258 258 257 255 254 254 253 252 251 250 249 249 248 248 248 248 248 248 248 249 249 249 250 250 250 251 252 253 255 257 257 256 254 253 253 253 254 255 256 257 258 258 259 260 262 263 265 267 269 271 274 276 279 281 282 283
281 281 280 280 280 280 280 279 279 278 278 277 277 276 276 275 275 274 273 271 270 269 268 266 264 261 259 259 258 258 258 257 255 255 254 253 252 251 250 249 248 248 248 248 248 248 248 248 248 248 249 249 249 249 250 251 253 254 255 255 254 252 252 252 252 252 253 253 255 256 257 258 260 261 262 264 266 270 272 274 277 279 280 282 283
281 280 279 279 279 279 279 279 278 278 277 276 276 276 275 275 274 274 272 271 270 269 268 267 265 262 260 258 258 258 257 256 255 254 253 252 252 252 251 249 248 247 247 248 248 248 247 247 247 248 248 248 248 248 248 251 253 253 253 253 252 251 251 251 251 251 251 252 253 254 256 258 258 259 261 263 267 271 273 275 276 278 279 281 282
280 279 279 279 279 279 278 278 277 277 276 275 275 274 274 274 274 273 272 271 270 269 268 267 266 264 261 259 258 258 257 257 255 254 253 251 251 251 250 249 248 247 247 248 248 247 247 246 246 247 248 248 248 247 249 250 252 252 251 251 251 250 250 250 250 251 251 251 253 254 256 257 258 259 261 264 268 271 273 274 276 278 279 281 282
281 279 279 278 278 278 277 277 276 275 275 274 273 273 272 272 272 272 271 270 270 269 268 267 266 265 263 261 259 258 257 257 255 254 252 250 250 249 248 248 248 247 247 247 248 247 247 247 247 247 248 248 247 247 248 249 250 251 250 250 249 249 249 249 250 251 251 251 253 255 255 256 257 259 262 265 268 270 272 274 275 278 280 281 282
281 280 279 278 277 277 277 276 275 274 274 273 272 272 271 270 270 270 270 269 269 269 269 268 266 265 264 262 261 259 257 256 255 253 252 250 249 248 247 247 247 247 247 247 247 247 247 247 247 247 246 246 246 246 247 249 250 250 249 248 247 247 248 249 249 250 251 251 252 254 255 256 257 259 263 266 268 270 271 273 275 278 280 280 281
282 281 280 279 278 278 277 276 275 273 273 273 272 271 270 270 269 269 269 268 268 268 267 267 266 266 264 263 261 259 258 256 254 253 251 250 248 247 247 247 247 246 247 247 247 247 247 248 248 247 245 245 245 246 248 249 249 248 247 246 246 246 247 248 249 249 250 251 252 253 255 256 258 261 264 267 269 270 270 273 275 278 279 280 282
283 282 281 280 279 278 277 276 275 274 272 272 272 270 270 269 269 268 268 268 267 266 266 265 265 265 264 263 261 260 258 256 254 253 252 250 249 247 246 246 246 245 246 247 247 248 247 247 248 246 245 245 245 246 248 248 247 246 245 245 245 245 247 248 249 250 250 250 250 252 254 256 259 262 265 268 269 270 271 274 276 278 279 281 283
283 282 281 280 279 278 277 276 275 274 273 272 271 270 269 268 268 267 267 266 266 265 264 264 263 263 263 263 262 260 258 256 254 253 251 250 249 247 245 244 244 245 246 247 248 248 247 247 246 245 244 244 244 245 246 246 245 244 243 244 244 245 247 248 249 249 249 249 250 253 255 257 259 262 265 267 269 270 272 274 276 278 280 282 284
283 282 281 281 280 279 277 276 275 274 273 272 271 270 268 267 267 266 266 265 265 264 263 262 261 260 260 260 261 260 259 257 255 253 251 250 249 246 244 243 243 244 246 247 248 248 247 246 245 244 244 244 244 244 244 243 243 242 242 243 244 246 248 248 248 248 248 249 251 253 255 257 260 262 264 266 268 270 272 274 277 279 281 283 284
283 282 281 280 280 279 278 276 274 273 272 271 270 269 268 267 266 265 265 264 263 263 262 261 260 258 257 257 258 259 258 257 256 254 251 250 249 246 244 242 242 243 245 246 247 247 246 245 245 244 243 243 243 243 243 242 241 241 241 242 245 247 248 247 246 247 248 249 251 253 256 258 260 262 264 266 268 270 272 275 277 279 281 283 285
284 283 281 280 279 278 278 276 275 273 272 270 269 268 267 266 265 264 263 263 262 261 261 260 259 257 256 256 256 257 257 256 256 254 253 251 248 246 244 242 241 242 244 245 246 245 244 244 244 243 243 242 242 242 241 240 240 241 241 243 246 247 246 244 244 246 248 250 252 254 256 259 261 262 264 266 268 270 273 275 277 279 281 283 285
284 283 282 281 279 278 277 276 275 273 271 270 269 267 266 265 264 262 261 261 260 260 259 258 257 256 256 255 255 255 255 255 255 254 253 251 249 246 244 243 242 243 244 245 245 245 244 244 243 243 243 242 241 241 240 239 239 241 243 244 245 245 244 243 244 246 249 251 253 255 257 259 260 262 264 266 269 271 273 276 277 279 281 283 285
285 283 282 281 280 278 277 275 274 273 271 269 268 267 265 264 263 262 260 259 259 259 258 257 255 255 254 255 254 254 254 253 253 253 252 251 249 246 244 243 242 243 244 244 245 244 243 243 243 243 243 242 241 241 241 240 240 241 242 242 243 243 243 243 245 247 250 252 253 255 257 258 260 262 265 267 269 271 274 275 277 279 281 283 285
285 284 283 282 280 279 277 275 274 272 271 269 267 266 264 263 263 262 260 259 258 258 257 256 255 253 253 253 253 253 253 252 252 251 251 250 248 246 244 242 242 243 243 242 243 244 243 243 243 243 242 242 242 242 241 240 239 239 240 241 242 243 243 244 246 248 250 252 254 256 257 258 260 263 265 267 269 271 273 275 277 280 282 284 285
286 285 284 282 281 280 278 277 275 273 271 270 268 266 264 263 262 261 260 259 258 257 256 255 254 253 252 251 251 251 251 251 251 249 249 248 247 246 245 242 240 240 240 239 240 241 242 242 243 242 241 241 241 241 241 239 238 238 239 240 242 243 244 245 247 249 251 252 254 255 257 259 261 263 265 266 268 271 273 276 278 281 283 285 286
287 286 285 284 283 281 280 278 276 274 273 271 269 268 266 264 262 261 260 259 258 257 255 254 253 252 251 250 250 250 250 250 249 248 247 246 246 245 244 242 239 237 237 237 239 240 241 242 243 242 241 241 241 241 240 239 238 238 239 242 243 244 245 246 247 249 250 252 254 256 258 260 262 264 265 267 269 271 274 276 279 281 283 285 286
287 287 286 285 284 283 281 279 277 275 273 272 270 268 266 264 262 260 259 258 257 256 255 253 252 251 250 249 249 249 248 248 247 246 245 244 244 244 243 241 239 237 236 237 240 242 242 243 243 243 242 242 242 241 240 240 239 239 241 243 244 244 245 246 247 248 250 252 254 256 258 261 263 264 266 267 269 272 275 277 280 282 284 285 287
288 287 286 285 284 283 281 279 277 274 272 271 269 267 265 262 261 260 258 257 256 255 254 253 251 250 249 248 247 246 246 245 245 245 244 243 243 243 243 242 239 237 236 238 240 242 243 243 242 242 242 242 241 241 241 240 240 241 242 243 243 243 244 245 246 248 249 251 253 255 258 260 263 264 266 268 271 273 276 278 281 283 284 285 287
288 287 286 285 284 282 280 279 277 275 272 270 269 267 265 263 261 260 258 257 256 255 253 252 251 249 248 247 245 244 243 243 243 243 242 241 241 241 242 241 239 237 236 238 241 242 242 242 242 242 242 241 241 240 240 240 240 241 242 242 242 243 243 243 244 246 247 250 252 255 258 261 263 265 267 269 271 274 276 279 281 283 284 285 286
290 288 287 285 284 282 280 278 277 275 273 271 269 267 266 264 262 260 258 256 255 254 252 251 250 248 247 246 244 242 241 241 241 241 241 240 240 240 240 241 239 237 237 239 241 241 242 242 241 241 241 242 241 239 238 239 240 240 241 242 242 241 241 241 242 244 247 249 253 256 259 262 263 265 267 269 271 274 276 279 281 282 283 285 286
292 291 289 287 285 283 281 279 277 276 274 272 270 268 266 264 262 260 257 255 253 252 251 249 248 248 246 245 243 242 240 240 239 239 239 238 237 237 238 239 239 238 238 239 240 241 242 242 241 240 241 241 240 239 238 238 239 240 240 241 240 240 240 240 242 245 248 251 253 256 259 261 263 265 267 269 272 274 276 279 280 282 283 284 285
296 294 293 291 288 286 284 281 279 277 274 272 270 268 266 264 261 259 257 254 252 250 249 248 247 246 245 244 243 241 240 239 238 238 238 237 236 236 237 238 239 239 239 239 240 241 242 241 240 240 240 240 239 238 238 238 238 239 239 239 239 239 239 240 242 245 248 251 254 257 259 261 263 265 267 270 272 274 276 278 280 281 283 284 285
299 297 296 294 292 289 287 283 281 278 275 273 271 269 267 264 261 259 257 254 252 250 248 246 246 245 244 244 242 241 240 239 238 237 237 236 236 236 237 239 239 240 240 240 239 240 240 240 239 239 239 239 239 238 238 238 238 238 238 238 237 237 238 240 243 246 249 252 255 257 260 262 264 266 268 270 272 274 276 278 279 281 283 284 285
302 301 299 298 296 293 290 286 283 280 277 274 271 269 267 265 262 259 257 254 252 250 248 246 245 244 244 243 242 241 240 238 238 237 236 236 236 237 237 239 240 240 240 239 239 239 238 238 238 238 237 238 238 239 239 238 237 237 237 236 236 237 238 241 244 247 250 253 256 258 261 263 265 266 268 270 272 274 276 278 280 282 283 285 286
306 305 303 302 300 297 293 289 285 282 279 276 273 270 268 266 263 260 257 254 251 249 246 245 243 243 243 242 241 241 240 239 238 237 236 236 236 237 237 238 239 239 239 238 237 237 236 236 236 236 236 237 238 238 238 238 237 236 236 236 236 238 240 242 245 248 251 254 257 259 261 263 264 266 268 270 272 275 277 279 281 283 285 287 288
310 308 307 305 303 300 297 293 289 285 282 279 276 272 269 266 264 261 258 254 251 248 245 244 243 242 242 242 241 240 240 239 238 237 236 236 236 236 236 238 238 238 238 237 235 234 234 235 235 235 235 236 237 237 237 236 236 235 235 236 237 239 241 244 247 249 252 254 256 258 260 262 263 266 268 271 273 276 278 280 282 285 286 287 288
315 313 311 309 307 304 301 297 293 289 284 281 278 275 271 268 266 263 259 255 252 248 244 243 242 242 243 242 241 239 239 239 237 236 235 235 235 235 235 236 237 237 236 234 233 232 233 233 233 234 234 235 235 235 235 235 234 234 235 236 238 240 242 244 247 249 251 254 256 258 260 262 264 267 270 272 275 277 279 281 284 285 286 287 289
320 319 317 315 312 309 306 303 299 294 289 285 282 279 275 271 267 264 261 257 252 248 244 243 243 243 242 241 240 239 238 238 236 235 233 233 233 233 233 234 234 234 233 232 231 230 230 230 231 232 233 234 234 234 234 233 233 234 235 237 239 241 242 244 246 248 251 253 255 258 260 263 265 268 271 273 276 278 280 282 284 285 286 288 289
327 326 325 323 320 317 314 311 308 303 297 292 287 283 278 274 269 266 263 258 253 249 246 245 244 243 242 241 240 239 238 236 234 233 232 231 230 230 231 231 231 231 230 230 229 229 228 229 230 231 232 233 232 232 231 232 233 235 236 238 240 241 242 244 246 248 251 254 256 258 261 263 266 269 271 274 276 278 280 282 284 285 287 288 290
333 334 333 332 330 326 322 319 316 312 307 302 296 290 284 278 273 267 262 256 252 250 248 246 245 243 242 241 240 238 236 234 232 230 230 229 228 228 228 228 228 228 227 227 226 226 227 228 229 230 231 231 230 230 231 232 234 236 237 239 240 241 243 245 247 250 253 255 257 260 262 265 268 270 272 275 277 279 281 282 284 285 287 289 291
339 338 338 337 335 333 329 326 322 318 314 309 304 298 293 286 278 270 262 256 252 250 249 248 246 243 241 239 237 235 233 231 229 228 227 227 227 226 226 226 226 225 223 223 223 224 225 227 228 229 229 229 229 229 230 232 233 235 236 238 240 242 244 245 248 251 254 257 259 262 264 266 269 271 273 275 277 279 281 283 284 286 288 290 292
347 344 343 341 340 337 335 333 330 327 323 318 313 307 301 294 286 277 267 259 253 250 249 247 244 241 239 236 234 231 229 228 226 224 223 224 224 224 223 223 222 221 220 219 221 223 225 226 226 227 227 227 227 228 229 231 232 234 236 238 240 242 244 246 248 252 254 257 260 263 265 267 269 271 273 275 278 280 281 283 285 287 289 291 293
356 354 351 349 348 347 346 345 342 339 337 335 331 326 319 309 299 288 278 267 258 251 247 244 242 239 235 232 229 227 224 222 219 218 218 219 219 219 219 218 217 217 217 218 219 222 223 224 223 223 223 224 225 226 228 230 232 234 236 238 240 243 245 247 250 252 255 257 260 263 265 267 270 272 274 276 278 280 282 284 286 288 290 292 293
8 5 2 359 357 356 356 355 354 352 350 348 346 343 339 333 323 309 293 278 265 254 246 240 237 232 227 223 220 217 214 211 209 209 211 212 212 212 211 211 211 212 213 215 217 219 219 219 219 219 220 222 223 225 228 230 232 234 237 239 241 244 246 248 250 252 255 257 260 263 266 268 270 272 275 277 279 281 284 285 287 289 291 293 294
20 18 14 10 7 5 4 3 2 1 360 359 359 357 356 355 350 341 325 300 275 253 238 230 224 218 213 208 205 202 200 199 199 202 203 204 204 203 203 203 204 205 207 210 212 214 214 214 215 216 218 220 223 225 227 229 232 234 237 239 242 244 246 248 250 252 255 257 260 263 266 269 271 274 276 278 281 283 285 287 288 291 293 294 295
26 26 25 23 20 17 14 12 10 8 7 6 5 4 4 7 9 10 8 359 327 233 209 203 199 197 196 194 192 189 188 188 190 192 193 193 192 192 192 194 196 199 202 204 206 207 209 210 212 213 216 218 220 223 226 228 231 233 236 239 241 244 246 248 251 253 255 258 261 265 267 270 273 276 278 280 283 284 286 288 290 292 294 294 295